Vorticity
14 8 -3 14 21 21 12 6 4 12 17 4 7 1 5 5 12 14 1 -0 5 1 3 3 5 6 7 13 10 3 0 4 -3 3 8 16 13 15 18 13 7 4 3 3
11 2 12 15 9 7 9 11 14 16 -4 11 4 4 11 17 16 14 17 14 3 2 2 -3 10 14 12 12 10 4 2 1 5 3 5 8 6 6 9 16 16 12 10 7
9 8 35 19 12 7 8 4 1 8 6 -1 10 21 26 11 9 -0 10 11 26 25 10 -1 -5 2 20 15 8 2 5 4 2 -4 -4 12 4 4 4 4 6 8 9 8
22 18 -18 -3 10 2 -1 5 -3 2 1 14 -13 -5 -24 27 21 21 9 11 2 9 16 8 27 16 19 16 2 6 5 5 2 9 26 5 7 4 7 4 4 7 7 8
-6 19 29 3 3 -4 6 12 -0 9 8 12 13 28 6 2 -0 -3 10 21 15 11 20 13 14 21 25 22 19 12 8 8 11 17 16 17 14 4 4 10 12 10 15 15
15 0 -4 21 21 8 13 11 4 10 10 39 40 7 16 18 14 9 14 11 12 7 13 12 10 15 22 26 26 17 14 19 7 7 7 5 8 9 9 9 9 10 12 15
7 -0 -7 1 -7 2 -7 12 11 22 20 6 4 24 -26 -17 3 9 16 14 16 17 10 7 1 -3 4 7 5 10 3 7 7 1 -4 -11 -3 1 5 5 5 4 6 4
7 56 26 2 2 -9 10 -0 -28 9 7 4 14 15 20 16 9 9 7 7 5 6 4 3 12 17 6 7 20 6 -14 -2 22 19 16 13 16 8 4 4 6 8 5 4
16 20 -4 23 39 1 15 12 10 -20 8 14 10 20 41 7 8 6 3 2 5 4 2 5 10 13 2 10 -0 4 -9 6 1 22 -17 1 -3 -0 9 9 11 13 14 13
-2 5 7 16 18 36 13 8 10 4 4 6 28 14 -9 -7 -1 8 13 11 12 12 5 6 10 4 -1 -4 2 4 12 13 14 24 16 17 20 22 22 18 14 12 10 13
-20 -4 28 8 6 4 12 10 7 41 -28 -2 9 17 46 27 2 6 5 13 3 11 19 12 14 -2 5 -3 -1 8 4 16 10 7 2 15 17 15 11 9 7 7 7 7
8 16 -5 -11 5 12 15 25 -1 -27 12 16 -12 7 17 17 8 -11 -10 6 15 12 8 4 -4 -3 6 -6 6 8 15 19 18 10 4 19 12 15 17 12 8 7 6 8
2 42 24 55 25 12 14 8 21 9 14 14 -24 23 -2 1 -1 4 -3 0 7 1 -8 -6 -3 -2 1 7 11 4 14 -5 5 3 18 14 2 -15 -13 30 31 24 26 18
30 -6 -7 -33 7 7 -1 9 11 13 3 1 -11 4 20 17 6 -18 -9 -4 -3 -14 -3 4 7 7 9 15 8 15 -5 6 3 8 13 15 -0 10 5 -6 5 15 3 17
-1 3 12 -9 19 14 14 13 5 7 1 -11 10 14 -16 -19 -9 7 4 12 5 13 26 39 19 4 18 23 13 7 -0 5 -2 1 16 14 4 4 10 9 5 8 4 32
8 -3 8 18 15 9 10 18 14 13 14 13 1 14 -5 1 2 10 9 15 25 21 10 14 6 16 8 11 8 -5 5 -5 11 0 13 18 7 12 6 4 11 5 8 21
21 -7 9 13 10 5 34 -11 2 5 -1 4 -2 -8 -7 2 5 5 7 10 13 15 18 4 14 16 10 12 -1 4 7 -1 -4 12 19 17 10 3 3 3 6 6 15 18
21 18 7 28 15 6 34 9 14 -0 7 17 28 28 27 13 7 5 14 14 17 25 26 26 19 10 8 3 3 0 -9 14 13 15 20 13 0 1 -1 5 6 9 17 26
23 25 2 3 2 -12 -7 3 7 16 12 11 -3 -0 6 11 12 10 13 11 7 14 15 11 11 9 12 11 4 3 16 7 8 19 15 2 3 2 2 4 8 10 14 24
2 8 10 12 5 -10 31 30 32 18 1 11 22 16 11 9 6 9 7 2 6 8 14 19 17 15 13 13 16 16 12 14 13 21 3 4 2 4 7 8 7 14 16 22
14 12 0 9 -5 22 -7 14 26 2 -14 -2 -2 11 12 9 6 11 10 3 5 7 12 17 12 20 12 15 16 11 11 16 5 5 2 5 6 10 11 10 17 15 16 15
-2 -23 16 -4 -2 25 -3 1 -21 0 -0 14 15 17 16 15 17 13 6 4 13 14 2 7 11 6 13 6 5 4 8 6 4 6 11 10 8 11 14 13 16 14 16 14
24 -14 -8 -12 3 -5 -11 23 25 25 6 14 11 4 -1 -6 2 -2 -20 -3 17 -16 -4 6 17 14 6 4 9 7 5 4 8 12 12 10 12 12 10 15 18 18 16 14
10 3 7 4 13 1 16 -1 5 7 7 6 -3 -3 1 3 2 4 1 -1 3 18 13 9 7 13 13 8 11 8 6 9 11 10 10 12 11 14 13 20 19 17 15 13
-1 15 4 1 -6 -10 -8 1 2 1 3 12 17 13 8 11 9 4 6 12 13 8 1 12 21 17 5 5 7 8 11 14 13 13 14 15 17 16 17 11 22 18 16 12
5 5 3 9 2 8 6 7 13 32 24 13 9 3 7 6 5 4 7 7 3 5 16 -3 25 18 13 7 8 14 13 12 16 13 12 18 10 7 7 18 20 18 14 14
Height
3117 3116 3114 3118 3122 3124 3125 3125 3122 3125 3127 3124 3123 3120 3118 3118 3117 3116 3115 3116 3116 3115 3116 3116 3114 3115 3118 3121 3125 3125 3127 3128 3129 3129 3129 3130 3129 3131 3133 3134 3134 3135 3135 3135
3112 3107 3113 3115 3117 3118 3120 3120 3119 3120 3123 3122 3120 3116 3116 3114 3113 3112 3111 3110 3110 3111 3110 3111 3110 3110 3112 3115 3118 3120 3122 3122 3124 3125 3124 3124 3125 3126 3128 3129 3128 3127 3128 3128
3106 3108 3106 3108 3111 3115 3116 3115 3116 3117 3118 3119 3115 3110 3112 3111 3109 3106 3105 3104 3104 3105 3106 3104 3103 3104 3104 3107 3113 3115 3117 3117 3117 3116 3116 3118 3120 3122 3123 3123 3122 3120 3120 3120
3101 3102 3104 3105 3107 3111 3111 3113 3113 3113 3115 3115 3114 3108 3107 3106 3105 3103 3102 3102 3100 3100 3099 3097 3095 3097 3098 3101 3107 3110 3111 3112 3112 3111 3108 3111 3112 3114 3116 3116 3116 3114 3113 3112
3094 3096 3097 3099 3103 3107 3107 3110 3111 3111 3110 3109 3110 3110 3102 3100 3100 3101 3100 3099 3097 3096 3094 3093 3092 3093 3094 3096 3099 3104 3106 3108 3108 3107 3105 3107 3109 3109 3109 3109 3108 3106 3104 3102
3090 3093 3092 3095 3100 3103 3105 3107 3108 3107 3108 3104 3101 3104 3100 3098 3096 3097 3097 3097 3096 3095 3093 3093 3091 3090 3090 3092 3095 3100 3102 3102 3102 3102 3103 3103 3104 3103 3102 3101 3102 3100 3097 3094
3084 3084 3088 3091 3094 3097 3100 3103 3106 3107 3106 3101 3097 3099 3095 3095 3094 3095 3094 3095 3095 3096 3095 3093 3092 3091 3092 3093 3093 3096 3097 3097 3098 3100 3099 3099 3099 3098 3096 3095 3094 3093 3092 3089
3078 3079 3081 3083 3084 3091 3094 3098 3101 3104 3105 3099 3098 3093 3089 3089 3089 3090 3091 3093 3093 3094 3095 3093 3092 3092 3092 3093 3093 3094 3095 3095 3094 3094 3095 3095 3093 3092 3090 3088 3086 3085 3083 3082
3073 3073 3073 3075 3080 3088 3090 3090 3097 3097 3097 3099 3094 3092 3091 3088 3088 3087 3087 3089 3092 3093 3092 3091 3092 3091 3090 3091 3091 3092 3091 3092 3093 3089 3090 3089 3087 3085 3083 3080 3077 3076 3075 3073
3071 3071 3071 3072 3075 3079 3081 3089 3094 3094 3094 3096 3088 3085 3080 3084 3086 3085 3084 3085 3087 3089 3089 3090 3089 3089 3089 3089 3088 3088 3088 3088 3085 3083 3080 3079 3077 3074 3072 3070 3068 3067 3065 3064
3065 3067 3069 3071 3069 3070 3075 3080 3086 3089 3087 3084 3085 3079 3078 3079 3084 3086 3085 3082 3082 3085 3086 3086 3086 3085 3084 3084 3084 3083 3081 3079 3077 3075 3073 3072 3069 3066 3064 3062 3060 3058 3056 3053
3054 3062 3065 3067 3067 3067 3069 3071 3074 3076 3077 3078 3078 3078 3075 3076 3077 3080 3081 3080 3080 3081 3082 3081 3081 3080 3080 3079 3078 3077 3075 3074 3074 3071 3068 3066 3062 3059 3056 3052 3050 3048 3045 3042
3049 3054 3060 3062 3065 3063 3061 3063 3065 3068 3069 3070 3075 3074 3072 3072 3073 3075 3079 3077 3077 3077 3079 3078 3077 3075 3074 3072 3070 3070 3070 3068 3067 3065 3063 3060 3057 3054 3051 3046 3043 3040 3037 3035
3043 3044 3046 3047 3050 3053 3056 3056 3059 3060 3062 3063 3065 3068 3066 3068 3070 3072 3070 3069 3068 3071 3073 3074 3070 3068 3066 3065 3064 3064 3063 3061 3060 3059 3057 3054 3051 3048 3044 3041 3037 3034 3031 3028
3038 3038 3042 3043 3046 3049 3049 3051 3051 3053 3055 3057 3060 3062 3064 3066 3066 3065 3063 3064 3062 3062 3063 3063 3062 3059 3059 3058 3058 3057 3056 3055 3053 3051 3050 3047 3044 3041 3037 3033 3029 3024 3019 3015
3029 3030 3033 3038 3041 3043 3045 3044 3045 3048 3049 3050 3054 3052 3058 3057 3056 3057 3056 3054 3054 3054 3055 3056 3054 3053 3052 3051 3051 3050 3049 3047 3045 3042 3040 3038 3036 3033 3029 3025 3021 3017 3012 3007
3020 3022 3027 3031 3034 3037 3038 3033 3037 3041 3043 3044 3045 3048 3049 3050 3047 3047 3047 3046 3047 3048 3048 3047 3046 3046 3046 3046 3045 3043 3041 3039 3037 3034 3031 3028 3026 3023 3021 3017 3013 3008 3004 2999
3012 3016 3020 3024 3028 3034 3025 3029 3032 3034 3036 3037 3040 3041 3041 3040 3038 3037 3036 3037 3039 3040 3041 3040 3041 3041 3040 3039 3038 3036 3035 3032 3029 3026 3024 3021 3019 3017 3014 3009 3004 2999 2995 2991
3006 3010 3012 3016 3023 3023 3021 3021 3024 3025 3029 3030 3033 3035 3034 3033 3031 3030 3029 3030 3032 3034 3035 3035 3036 3036 3035 3033 3031 3028 3025 3024 3022 3020 3017 3015 3012 3009 3005 3001 2996 2991 2987 2984
3004 3006 3011 3014 3019 3020 3015 3017 3018 3021 3022 3023 3026 3025 3025 3026 3026 3027 3026 3023 3027 3028 3029 3029 3028 3027 3025 3023 3021 3019 3017 3015 3013 3012 3010 3008 3004 3001 2997 2993 2989 2984 2980 2977
2995 3001 3003 3007 3011 3010 3010 3009 3013 3017 3014 3016 3017 3017 3017 3017 3018 3022 3021 3021 3020 3020 3021 3021 3019 3017 3017 3015 3013 3011 3010 3008 3006 3004 3003 3000 2996 2992 2988 2985 2981 2977 2974 2970
2986 2995 2998 3004 3008 3006 3003 3007 3006 3007 3007 3009 3009 3010 3010 3009 3010 3013 3015 3015 3016 3015 3014 3013 3012 3010 3010 3008 3007 3005 3004 3001 2999 2997 2995 2992 2988 2984 2981 2978 2974 2971 2968 2965
2985 2983 2988 2991 2990 2995 2997 2998 3000 3001 3001 3003 3005 3005 3004 3004 3006 3007 3007 3010 3010 3010 3008 3007 3007 3005 3002 3000 2999 2999 2997 2995 2992 2989 2986 2984 2980 2977 2974 2970 2967 2966 2962 2960
2977 2980 2983 2985 2984 2988 2993 2994 2994 2995 2996 2997 2999 3000 2998 2998 2997 2998 2997 3001 3002 3003 3002 3000 2999 2998 2996 2995 2994 2992 2989 2987 2984 2981 2979 2976 2972 2970 2966 2963 2962 2960 2958 2956
2972 2975 2974 2975 2978 2983 2987 2987 2987 2987 2988 2989 2990 2989 2989 2989 2989 2990 2990 2991 2993 2993 2992 2991 2990 2989 2988 2987 2986 2984 2982 2979 2977 2974 2971 2968 2965 2962 2960 2959 2957 2955 2953 2953
2966 2968 2968 2970 2973 2975 2977 2977 2978 2978 2979 2979 2979 2978 2979 2977 2979 2981 2981 2983 2984 2984 2983 2981 2980 2979 2979 2979 2978 2976 2974 2972 2969 2966 2963 2961 2959 2957 2956 2954 2954 2952 2951 2950